Home   Weather   Wichita   Past weeks

Flag for USA Past Weather in Wichita, Kansas, USA — Yesterday and Last 2 Weeks

Now
46 °F

Fog.


Feels Like: 43 °F
Forecast: 41 / 52 °F
Wind: 6 mph from Southeast

Location: Wichita Mid-Continent Airport

Current Time: Jan 20, 2017 at 6:18:05 am

Latest Report: Jan 20, 2017 at 4:53 am


Visibility: 0 mi

Pressure: 29.51 "Hg

Humidity: 96%

Dew Point: 45 °F

Location of WichitaLocation

Past Weather in Wichita — Graph

°F

Wichita Temperature Yesterday

Maximum temperature yesterday: 52 °F (at 2:53 pm)
Minimum temperature yesterday: 41 °F (at 10:27 pm)
Average temperature yesterday: 46 °F

High & Low Weather Summary for the Past Weeks

 TemperatureHumidityPressure
High63 °F (Jan 11, 1:53 pm)100% (Jan 15, 10:53 am)30.71 "Hg (Jan 15, 10:53 am)
Low4 °F (Jan 7, 7:53 am)24% (Jan 10, 1:53 pm)29.43 "Hg (Jan 10, 4:53 am)
Average34 °F71%30.12 "Hg
* Reported Jan 5 4:53 am — Jan 20 4:53 am, Wichita, Weather by CustomWeather, © 2017

Note: Actual official high and low records may vary slightly from our data, if they occured in-between our weather recording intervals... More about our weather records

Advertising

Wichita Weather History for the Previous 24 Hours

Scroll right to see more
 ConditionsComfort  
Time TempWeatherWind HumidityBarometerVisibility
4:53 am
Fri, Jan 20
46 °FFog.6 mph96%29.51 "Hg0 mi
4:39 am46 °FFog.7 mph96%29.51 "Hg0 mi
4:26 am46 °FFog.8 mph96%29.51 "Hg0 mi
4:19 am46 °FFog.8 mph96%29.51 "Hg0 mi
3:53 am46 °FDense fog.6 mph96%29.51 "Hg1 mi
3:23 am45 °FLow clouds.7 mph97%29.52 "Hg2 mi
2:53 am44 °FLow clouds.5 mph100%29.53 "Hg2 mi
2:25 am44 °FLow clouds.6 mph100%29.54 "Hg1 mi
2:00 am44 °FFog.7 mph100%29.53 "Hg4 mi
1:23 am44 °FFog.5 mph100%29.52 "Hg1 mi
12:53 am43 °FFog.5 mph100%29.54 "Hg0 mi
11:53 pm
Thu, Jan 19
42 °FFog.3 mph100%29.57 "Hg0 mi
11:38 pm42 °FFog.7 mph100%29.56 "Hg1 mi
11:22 pm43 °FPassing clouds.6 mph97%29.57 "Hg1 mi
11:05 pm41 °FPassing clouds.8 mph96%29.57 "Hg1 mi
10:27 pm41 °FFog.6 mph100%29.58 "Hg4 mi
9:53 pm42 °FFog.5 mph96%29.59 "Hg6 mi
9:28 pm42 °FPassing clouds.5 mph96%29.59 "Hg7 mi
9:23 pm42 °FPassing clouds.6 mph96%29.59 "Hg7 mi
8:53 pm46 °FPassing clouds.8 mph93%29.59 "Hg10 mi
8:32 pm47 °FMostly cloudy.6 mph90%29.59 "Hg10 mi
8:00 pm47 °FLow clouds.7 mph90%29.59 "Hg10 mi
7:36 pm47 °FMostly cloudy.6 mph90%29.59 "Hg10 mi
6:53 pm48 °FOvercast.8 mph86%29.59 "Hg10 mi
5:53 pm48 °FOvercast.9 mph86%29.59 "Hg10 mi
4:53 pm49 °FOvercast.9 mph84%29.59 "Hg10 mi
4:19 pm50 °FMostly cloudy.10 mph83%29.59 "Hg10 mi
3:53 pm51 °FMostly cloudy.13 mph80%29.58 "Hg10 mi
2:53 pm52 °FOvercast.8 mph77%29.58 "Hg10 mi
2:31 pm51 °FOvercast.12 mph77%29.58 "Hg10 mi
1:53 pm51 °FOvercast.10 mph80%29.59 "Hg10 mi
12:53 pm49 °FOvercast.10 mph86%29.63 "Hg10 mi
11:53 am48 °FLow clouds.13 mph89%29.67 "Hg10 mi
10:53 am47 °FFog.15 mph93%29.70 "Hg4 mi
9:53 am47 °FFog.16 mph93%29.70 "Hg4 mi
9:13 am46 °FFog.12 mph93%29.71 "Hg4 mi
8:53 am46 °FFog.13 mph96%29.72 "Hg4 mi
8:20 am46 °FDrizzle. Fog.13 mph93%29.72 "Hg4 mi
7:53 am46 °FDrizzle. Fog.14 mph93%29.73 "Hg3 mi
6:53 am45 °FDrizzle. Fog.13 mph97%29.75 "Hg4 mi
Weather by CustomWeather, © 2017

See weather overviewHow to use our weather pages